SL-8 DEB, 21158

Orbit data source: Space-Track

SL-8 DEB, 21158 is space debris in LEO originally from a launch on Tue, 12 Feb 1991 UTC launched from the Plesetsk Missile And Space Complex (PKMTR). Debris objects in space refer to the collection of defunct objects orbiting the Earth. Examples of debris include non-operational satellites, rocket bodies, and fragments generated from explosions, collisions, or faulty payload assembly.

Loading next visibility...
Identifier
21158, 1991-009V
Orbit
LEO
Country
Flag of CISCIS
Related business
Manufacturer
Unknown
Mission
Spacecraft
Bus & Motor
Unknown
Mass
Unknown
Launch date (UTC)
1991-02-12 (35 years ago)
Launch vehicle
Unknown
Launch site
Plesetsk Missile And Space Complex (PKMTR)
Object type
Payload
Rocket body
Debris
Shape & HBR
Unknown shape, 0.3 m
Radar Cross Section
Medium (>0.1 m² and <1 m²)

Expand to show TLE details & history
Last TLE update: 10 hours ago

TLE from 10 hours ago
0 SL-8 DEB
1 21158U 91009V   26171.48378940  .00000031  00000-0  44430-3 0  9998
2 21158  74.1017  70.6548 0141886  66.4941 105.3861 12.13954957563922
Epoch: 2026-06-20T11:36Z
TLE epoch observation values (Epoch: 2026-06-20T11:36:39.404Z)
Latitude
6.24309°
Longitude
166.01589°
Altitude
1,652.327 km
Speed
7.033 km/s
True Right ascension
16h 35m 30s
True Declination
6° 12' 37"
Sunlit
Object was in full shadow at epoch
Visualization orbit readout
Latitude
Unknown
Longitude
Unknown
Altitude
Unknown
Speed
Unknown
Apparent Right ascension
Unknown
Apparent Declination
Unknown
Sunlit
N/A
Visualization observer readout
Local Sidereal Time
08:46:34
Azimuth
Unknown
Elevation
Unknown
Doppler factor
Unknown
Orbital elements
Apogee altitude
1,730.289 km
Perigee altitude
1,503.413 km
Semi-major axis
7,994.988 km
Eccentricity
0.01419
Inclination
74.1017°
RAAN
70.6548°
Arg. of periapsis
66.4941°
True anomaly
106.94619°
Mean anomaly
105.3861°
Eccentric anomaly
106.1669°
Mean motion
3.0361 °/min
Orbital period
118.57 mins
BSTAR
0.0004443
Loading maneuver chart data...
Computing Atmospheric mass density...
Loading historical data...
Loading historical data...
Loading historical data...
Loading historical data...
Loading historical data...
Loading historical data...
Loading historical data...

Documentation

Showing up to 5 results
|